Location: Bastelaar
(51.0950°N, 3.8602°E)
Time: 05:34:52
(UTC+00:00)

SL-12 R/B(2) - Pass Details

Date: 18 November 2025
Orbit: 1173 x 2176 km, 63.4° (Epoch: 16 December)

Event Time Altitude Azimuth Distance (km) Brightness Sun altitude
Rises 17:16:16 0° 210° (SSW) 4,192 7.5 -12.9°
Reaches altitude 10° 17:18:51 10° 208° (SSW) 3,303 6.9 -13.3°
Maximum altitude 17:26:48 72° 126° (SE) 1,541 4.4 -14.5°
Enters shadow 17:35:52 13° 46° (NE) 3,784 6.0 -15.9°
